Location: 5810 Zion Rd, Cleves, OH 45002, USA
(39.1922°N, 84.7113°W)
Time: 07:33:01
(UTC-05:00)

Courier 1B Rocket - Pass Details

Date: 07 December 2019
Orbit: 920 x 1202 km, 28.2° (Epoch: 19 January)

Event Time Altitude Azimuth Distance (km) Brightness Sun altitude
Rises 11:31:32 0° 257° (WSW) 3,580 7.9 26.7°
Reaches altitude 10° 11:34:35 10° 245° (WSW) 2,616 7.5 26.8°
Maximum altitude 11:39:35 25° 192° (SSW) 1,747 7.9 27.1°
Drops below altitude 10° 11:44:34 10° 138° (SE) 2,612 8.4 27.3°
Sets 11:47:37 0° 126° (SE) 3,574 8.6 27.4°
